This demonstration page uses our WeatherBlox Daily Observations layout. Learn more.

Left ArrowRight Arrow

Hourly Observations for May 1, 2018

Temp ( °F °C ) Dew Point ( °F °C ) Humidity (%) Winds ( mph kmh ) Pressure ( in mb ) Visibility ( mi km ) Precip ( " mm )
12:51 am 00:51 Clear 68 20 28 -2.2 22 22 NNE 5 7 29.67 1005 10 16 0.00 0.00
1:51 am 01:51 Clear 65 18.3 29 -1.7 26 26 NNW 6 9 29.67 1005 10 16 0.00 0.00
2:51 am 02:51 Clear 62 16.7 28 -2.2 28 28 Calm 29.67 1005 10 16 0.00 0.00
3:51 am 03:51 Clear 58 14.4 26 -3.3 29 29 NNE 7 11 29.66 1005 10 16 0.00 0.00
4:51 am 04:51 Clear 60 15.6 22 -5.6 23 23 N 3 6 29.67 1005 10 16 0.00 0.00
5:51 am 05:51 Sunny 53 11.7 21 -6.1 28 28 Calm 29.70 1006 10 16 0.00 0.00
6:51 am 06:51 Sunny 63 17.2 24 -4.4 23 23 Calm 29.70 1006 10 16 0.00 0.00
7:51 am 07:51 Sunny 68 20 25 -3.9 20 20 ENE 7 11 29.70 1006 10 16 0.00 0.00
8:51 am 08:51 Sunny 72 22.2 21 -6.1 15 15 S 17 28 29.70 1006 10 16 0.00 0.00
9:51 am 09:51 Sunny 73 22.8 18 -7.8 12 12 S 14 22 29.71 1006 10 16 0.00 0.00
10:51 am 10:51 Sunny 75 23.9 13 -10.6 9 9 undefined N/A 29.68 1005 10 16 0.00 0.00
11:51 am 11:51 Sunny 78 25.6 11 -11.7 8 8 SSW 12 19 29.67 1005 10 16 0.00 0.00
12:51 pm 12:51 Sunny 80 26.7 13 -10.6 8 8 W 12 19 29.65 1004 10 16 0.00 0.00
1:51 pm 13:51 Sunny 81 27.2 12 -11.1 7 7 VRB 7 11 29.62 1003 10 16 0.00 0.00
2:51 pm 14:51 Sunny 81 27.2 8 -13.3 6 6 WSW 12 19 29.61 1003 10 16 0.00 0.00
3:51 pm 15:51 Sunny 81 27.2 5 -15 5 5 SSW 23 37 29.61 1003 10 16 0.00 0.00
4:51 pm 16:51 Sunny 79 26.1 4 -15.6 5 5 SSW 17 28 29.61 1003 10 16 0.00 0.00
5:51 pm 17:51 Sunny 77 25 8 -13.3 7 7 SSW 18 30 29.63 1004 10 16 0.00 0.00
6:51 pm 18:51 Sunny 75 23.9 11 -11.7 8 8 W 12 19 29.64 1004 10 16 0.00 0.00
7:51 pm 19:51 Clear 69 20.6 23 -5 17 17 NW 20 31 29.70 1006 10 16 0.00 0.00
8:51 pm 20:51 Mostly Clear 72 22.2 18 -7.8 13 13 SW 20 31 29.70 1006 10 16 0.00 0.00
8:58 pm 20:58 Mostly Clear 71 21.7 18 -7.8 13 13 SW 15 24 29.68 1005 10 16 0.00 0.00
9:21 pm 21:21 Clear 68 20 24 -4.4 19 19 WNW 12 19 29.71 1006 10 16 0.00 0.00
9:51 pm 21:51 Mostly Clear 68 20 25 -3.9 20 20 WNW 8 13 29.72 1007 10 16 0.00 0.00
10:36 pm 22:36 Cloudy 70 21 19 -7 15 15 SW 18 30 29.68 1005 10 16 0.00 0.00
10:51 pm 22:51 Cloudy 69 20.6 21 -6.1 16 16 WSW 18 30 29.71 1006 10 16 0.00 0.00
11:51 pm 23:51 Mostly Clear 68 20 23 -5 18 18 W 12 19 29.69 1005 10 16 0.00 0.00

Powered by AerisWeather